[[{"header":{"parameterUnit":"m.s-1","parameterCategory":1,"la1":30.2991,"la2":30.254,"lo1":-89.0895,"lo2":-89.0444,"dy":0.0017,"dx":0.0017,"nx":28,"ny":28,"refTime":"2024-05-11T03:00:00:Z","depth":0,"parameterNumber":2,"parameterNumberName":"U-component_of_WINDS"},"data":[0,0,0,0,0,0,0,0,0,0,0,0,0,0,0,0,0,0,0,0,0,0,0,0,0,0,0,0,0,0,0,0,0,0,0,0,0,0,0,0,0,0,0,0,0,0,0,0,0,0,0,0,0,0,0,0,0,0,-5.8029,-5.803,0,-5.8091,-5.8092,-5.8093,-5.8047,-5.8045,-5.8043,-5.8042,-5.8101,-5.8105,-5.8108,0,0,0,0,0,0,0,0,0,0,0,0,0,-5.7867,-5.787,-5.8029,-5.803,-5.8031,-5.8091,-5.8092,-5.8093,-5.8048,-5.8045,-5.8043,-5.8041,-5.81,-5.8104,-5.8108,0,0,0,0,0,0,0,0,0,0,0,0,0,-5.7934,-5.7871,-5.8029,-5.8015,-5.8015,-5.8091,-5.8092,-5.8093,-5.8048,-5.8045,-5.8042,-5.8039,-5.8099,-5.8104,-5.8109,-5.82,0,0,-5.8125,-5.8127,0,0,0,0,0,0,0,0,-5.793,-5.794,-5.8017,-5.8016,-5.8016,-5.8059,-5.8057,-5.8129,-5.8049,-5.8035,-5.8041,-5.8038,-5.8089,-5.8095,-5.8113,-5.8203,-5.8206,-5.8125,-5.8128,-5.813,-5.8132,0,0,0,0,0,0,0,-5.7926,-5.7937,-5.8053,-5.8018,-5.8017,-5.8005,-5.8011,-5.807,-5.8078,-5.8036,-5.8033,-5.8041,-5.8088,-5.8108,-5.8114,-5.8207,-5.8125,-5.813,-5.8133,-5.8135,-5.8373,-5.8376,0,0,0,0,0,0,-5.7923,-5.7933,-5.8051,-5.8055,-5.7965,-5.801,-5.8017,-5.8048,-5.8077,-5.8079,-5.8044,-5.8039,-5.8101,-5.8108,-5.8116,-5.8223,-5.813,-5.8135,-5.8138,-5.837,-5.8374,-5.8378,0,0,0,0,0,0,-5.7919,-5.7934,-5.8049,-5.7994,-5.8007,-5.8016,-5.8051,-5.8051,-5.807,-5.8083,-5.8084,-5.8063,-5.8099,-5.8109,-5.818,-5.8224,-5.8138,-5.8142,-5.8366,-5.8371,-5.8376,-5.8439,0,0,0,0,0,0,-5.7915,-5.7933,-5.7968,-5.7995,-5.8011,-5.8113,-5.8054,-5.8054,-5.808,-5.8074,-5.8101,-5.8103,-5.8097,-5.8172,-5.8185,-5.823,-5.8146,-5.8362,-5.8369,-5.8374,-5.8433,-5.8445,-5.8456,0,0,0,0,0,-5.7909,-5.7983,-5.797,-5.7985,-5.8055,-5.8115,-5.8124,-5.8117,-5.8084,-5.8119,-5.8127,-5.8102,-5.8219,-5.818,-5.8194,-5.8241,-5.8359,-5.8367,-5.8374,-5.8427,-5.8443,-5.8456,0,0,0,0,0,0,-5.796,-5.7986,-5.7972,-5.8057,-5.8085,-5.8108,-5.8151,-5.8134,-5.817,-5.8163,-5.8153,-5.8159,-5.8233,-5.8245,-5.8201,-5.833,-5.8283,-5.8294,-5.8319,-5.8334,-5.8345,-5.8339,-5.8151,0,0,0,0,0,-5.7982,-5.8029,-5.8049,-5.8122,-5.8137,-5.8142,-5.8168,-5.8161,-5.8188,-5.8199,-5.8212,-5.8239,-5.8281,-5.8309,-5.8349,-5.8436,-5.8439,-5.8475,-5.8487,-5.8496,-5.8504,-5.8549,-5.8564,-5.8402,-5.8401,-5.8401,0,0,-5.8025,-5.8046,-5.8076,-5.8133,-5.8153,-5.8201,-5.8152,-5.8205,-5.824,-5.8206,-5.8273,-5.8285,-5.8314,-5.8392,-5.8428,-5.8404,-5.8551,-5.8506,-5.8513,-5.8516,-5.8558,-5.8573,-5.8587,-5.8406,-5.8406,-5.8405,0,0,-5.8129,-5.8151,-5.8212,-5.8234,-5.8266,-5.827,-5.8285,-5.8311,-5.8317,-5.8385,-5.8361,-5.8402,-5.8476,-5.8497,-5.8517,-5.8631,-5.8607,-5.8644,-5.8703,-5.8747,-5.8759,-5.8771,-5.8808,-5.8822,-5.8653,-5.8653,-5.8653,0,-5.8178,-5.8251,-5.8246,-5.8301,-5.8326,-5.83,-5.8361,-5.8383,-5.8426,-5.8443,-5.8417,-5.8509,-5.8526,-5.8608,-5.8636,-5.8655,-5.867,-5.8639,-5.8758,-5.877,-5.878,-5.8815,-5.8829,-5.8657,-5.8656,-5.8656,-5.8656,0,-5.8309,-5.836,-5.8406,-5.8449,-5.8479,-5.8538,-5.854,-5.8571,-5.8563,-5.8568,-5.8637,-5.8658,-5.8701,-5.8721,-5.8712,-5.8802,-5.8786,-5.876,-5.8711,-5.8799,-5.8832,-5.8846,-5.8662,-5.8661,-5.866,-5.8659,0,0,-5.8442,-5.8484,-5.85,-5.8519,-5.8553,-5.8591,-5.8648,-5.8692,-5.8717,-5.8749,-5.8794,-5.8858,-5.8834,-5.8858,-5.8852,-5.8891,-5.8975,-5.8859,-5.886,-5.8877,-5.9072,-5.9088,-5.9104,-5.8963,-5.8965,-5.8967,-5.9068,0,-5.8545,-5.8644,-5.8642,-5.8734,-5.8779,-5.8757,-5.8806,-5.8831,-5.8839,-5.8878,-5.8886,-5.893,-5.8897,-5.891,-5.8948,-5.8957,-5.9014,-5.895,-5.9002,-5.9003,-5.8991,-5.9122,-5.914,-5.9234,-5.9081,-5.9084,-5.9085,0,-5.8676,-5.8713,-5.8809,-5.8836,-5.8855,-5.89,-5.8939,-5.8977,-5.9006,-5.9008,-5.9035,-5.9023,-5.9079,-5.9033,-5.9109,-5.9066,-5.9087,-5.9095,-5.9099,-5.9099,-5.9046,-5.9122,-5.9264,-5.9276,-5.9106,-5.9104,-5.9103,0,-5.876,-5.8833,-5.89,-5.8917,-5.8951,-5.8983,-5.8998,-5.9024,-5.905,-5.9085,-5.9101,-5.9141,-5.9162,-5.9194,-5.9192,-5.9159,-5.9268,-5.9222,-5.9269,-5.9269,-5.9289,-5.9287,-5.9432,-5.9311,-5.9311,-5.931,-5.931,0,-5.8872,-5.893,-5.8938,-5.8978,-5.9043,-5.9041,-5.9105,-5.9117,-5.9141,-5.9182,-5.9166,-5.9205,-5.9203,-5.9242,-5.9242,-5.9303,-5.9314,-5.9316,-5.9314,-5.9315,-5.9314,-5.9326,-5.9317,-5.9314,-5.9313,-5.9312,-5.9312,0,-5.8973,-5.8981,-5.9052,-5.9079,-5.9087,-5.9134,-5.9156,-5.9194,-5.9202,-5.9254,-5.9266,-5.9277,-5.9322,-5.9326,-5.9378,-5.9378,-5.9451,-5.9445,-5.9441,-5.9439,-5.9484,-5.9478,-5.9638,-5.9657,-5.9527,-5.9528,-5.9529,0,-5.9042,-5.9087,-5.912,-5.9147,-5.9165,-5.9209,-5.9236,-5.9236,-5.9264,-5.93,-5.9333,-5.9377,-5.9412,-5.9486,-5.9497,-5.9537,-5.9529,-5.9582,-5.9534,-5.9533,-5.9525,-5.9521,-5.9524,-5.959,-5.9591,-5.9592,-5.9593,0,-5.9163,-5.9165,-5.9204,-5.9246,-5.9278,-5.9311,-5.9341,-5.9364,-5.9367,-5.94,-5.9446,-5.9474,-5.9528,-5.9571,-5.961,-5.9625,-5.9609,-5.9609,-5.9621,-5.962,-5.9615,-5.9615,-5.9462,-5.9604,-5.9603,-5.9602,-5.9602,-5.9601,-5.9248,-5.9286,-5.9315,-5.9359,-5.9382,-5.9411,-5.9447,-5.946,-5.9499,-5.9544,-5.9542,-5.9593,-5.962,-5.9671,-5.9689,-5.9728,-5.971,-5.9728,-5.9732,-5.9736,-5.9739,-5.9613,-5.9736,-5.9735,-5.9735,-5.9735,-5.9735,0,-5.9364,-5.9382,-5.9424,-5.9466,-5.9501,-5.9487,-5.9519,-5.9548,-5.9594,-5.9621,-5.9657,-5.971,-5.9752,-5.9768,-5.9809,-5.9837,-5.983,-5.9847,-5.9843,-5.9846,-5.9755,-5.9738,-5.9852,-5.9852,-5.9852,-5.9851,-5.9851,-5.9851,-5.9428,-5.9491,-5.9497,-5.9571,-5.9588,-5.9639,-5.9658,-5.9684,-5.9706,-5.9766,-5.9801,-5.9812,-5.9835,-5.9877,-5.9915,-5.9918,-5.9932,-5.9951,-5.9951,-5.9865,-5.9853,-5.9841,-5.9825,-5.9955,-5.9956,-6.0039,-6.004,-6.004]},{"header":{"parameterUnit":"m.s-1","parameterCategory":1,"la1":30.2991,"la2":30.254,"lo1":-89.0895,"lo2":-89.0444,"dy":0.0017,"dx":0.0017,"nx":28,"ny":28,"refTime":"2024-05-11T03:00:00:Z","depth":0,"parameterNumber":3,"parameterNumberName":"V-component_of_WINDS"},"data":[0,0,0,0,0,0,0,0,0,0,0,0,0,0,0,0,0,0,0,0,0,0,0,0,0,0,0,0,0,0,0,0,0,0,0,0,0,0,0,0,0,0,0,0,0,0,0,0,0,0,0,0,0,0,0,0,0,0,3.3424,3.3425,0,3.3452,3.3453,3.3453,3.3441,3.3441,3.344,3.3439,3.3465,3.3466,3.3468,0,0,0,0,0,0,0,0,0,0,0,0,0,3.336,3.3361,3.3424,3.3425,3.3425,3.3452,3.3453,3.3453,3.3441,3.344,3.344,3.3439,3.3465,3.3466,3.3468,0,0,0,0,0,0,0,0,0,0,0,0,0,3.3387,3.3361,3.3424,3.3423,3.3423,3.3452,3.3453,3.3453,3.3441,3.344,3.3439,3.3439,3.3464,3.3466,3.3468,3.35,0,0,3.3474,3.3475,0,0,0,0,0,0,0,0,3.3386,3.339,3.3422,3.3423,3.3423,3.3442,3.3439,3.3469,3.3442,3.3434,3.3439,3.3438,3.3458,3.3461,3.3468,3.3501,3.3502,3.3474,3.3475,3.3476,3.3477,0,0,0,0,0,0,0,3.3384,3.3389,3.3435,3.3423,3.3423,3.342,3.3423,3.3445,3.3451,3.3435,3.3434,3.3438,3.3458,3.3466,3.3468,3.3503,3.3474,3.3476,3.3477,3.3478,3.3564,3.3565,0,0,0,0,0,0,3.3382,3.3387,3.3434,3.3436,3.3402,3.3422,3.3425,3.3437,3.3451,3.3452,3.3438,3.3437,3.3463,3.3466,3.3469,3.3507,3.3476,3.3478,3.3479,3.3563,3.3564,3.3566,0,0,0,0,0,0,3.3381,3.3387,3.3433,3.3411,3.3417,3.3424,3.3438,3.3438,3.3446,3.3454,3.3455,3.3445,3.3462,3.3466,3.3493,3.3508,3.3479,3.3481,3.3562,3.3563,3.3565,3.3584,0,0,0,0,0,0,3.3379,3.3386,3.3399,3.3412,3.3418,3.3457,3.3439,3.3439,3.345,3.3448,3.3461,3.3462,3.3462,3.349,3.3495,3.351,3.3482,3.356,3.3562,3.3564,3.3582,3.3586,3.359,0,0,0,0,0,3.3377,3.3402,3.3399,3.3405,3.3434,3.3458,3.3461,3.3462,3.3451,3.3463,3.3469,3.3461,3.3506,3.3493,3.3498,3.3514,3.3559,3.3562,3.3564,3.358,3.3586,3.359,0,0,0,0,0,0,3.3389,3.3404,3.3401,3.3431,3.3444,3.3456,3.3471,3.3467,3.3482,3.3479,3.3479,3.3482,3.3509,3.3514,3.3499,3.3546,3.3531,3.3535,3.3542,3.3546,3.355,3.3548,3.3484,0,0,0,0,0,3.3396,3.3414,3.3426,3.3452,3.3458,3.3464,3.3474,3.3474,3.3486,3.349,3.3498,3.3509,3.3526,3.3537,3.3552,3.3584,3.3586,3.3598,3.3602,3.3605,3.3607,3.3625,3.363,3.3574,3.3574,3.3574,0,0,3.3409,3.3419,3.343,3.3454,3.3464,3.3482,3.3468,3.3488,3.3502,3.3493,3.3518,3.3524,3.3537,3.3566,3.3579,3.3572,3.3624,3.3608,3.361,3.3611,3.3628,3.3633,3.3638,3.3575,3.3575,3.3575,0,0,3.3442,3.3452,3.3475,3.3485,3.35,3.3504,3.351,3.3523,3.3527,3.3553,3.3547,3.3563,3.3592,3.3601,3.361,3.3649,3.3643,3.3654,3.3674,3.369,3.3695,3.3699,3.3712,3.3717,3.3657,3.3657,3.3657,0,3.3456,3.3484,3.3487,3.3508,3.3518,3.3513,3.3536,3.3546,3.3565,3.3572,3.3564,3.3601,3.3609,3.364,3.365,3.3657,3.3663,3.3652,3.3694,3.3698,3.3702,3.3715,3.372,3.3659,3.3658,3.3658,3.3658,0,3.3501,3.3521,3.3537,3.3557,3.357,3.3592,3.3597,3.361,3.3609,3.3614,3.364,3.365,3.3668,3.3676,3.3675,3.3707,3.3702,3.3694,3.3678,3.3708,3.372,3.3725,3.366,3.366,3.366,3.3659,0,0,3.354,3.3563,3.3569,3.3578,3.3595,3.361,3.3632,3.3651,3.3662,3.3676,3.3694,3.3719,3.3712,3.3722,3.3722,3.3737,3.3767,3.3727,3.3728,3.3734,3.3804,3.3809,3.3814,3.3764,3.3765,3.3766,3.3802,0,3.3574,3.3613,3.3617,3.3652,3.3671,3.3667,3.3686,3.3699,3.3704,3.372,3.3726,3.3744,3.3734,3.374,3.3755,3.3761,3.3781,3.3758,3.378,3.3781,3.3776,3.3821,3.3826,3.386,3.3807,3.3808,3.3808,0,3.3618,3.3635,3.3672,3.3688,3.3696,3.3713,3.3731,3.3747,3.3761,3.3764,3.3776,3.3775,3.3797,3.3782,3.3812,3.3797,3.3806,3.3811,3.3812,3.3813,3.3795,3.3822,3.3871,3.3875,3.3816,3.3815,3.3815,0,3.3643,3.3675,3.3701,3.371,3.3729,3.3741,3.3749,3.3763,3.3774,3.379,3.3797,3.3815,3.3824,3.3838,3.3841,3.383,3.3872,3.3857,3.3874,3.3874,3.3882,3.3881,3.3931,3.389,3.389,3.3889,3.3889,0,3.368,3.3703,3.3713,3.3729,3.3754,3.3759,3.3783,3.3791,3.3803,3.3821,3.3819,3.3835,3.3839,3.3856,3.3858,3.3883,3.3887,3.389,3.389,3.3889,3.3889,3.3894,3.3892,3.3891,3.3891,3.389,3.389,0,3.3711,3.3719,3.3747,3.3764,3.3768,3.3786,3.38,3.3816,3.3822,3.3844,3.3849,3.3858,3.3878,3.3883,3.3906,3.3908,3.3937,3.3936,3.3933,3.3932,3.3949,3.3947,3.4004,3.4011,3.3966,3.3966,3.3966,0,3.3733,3.3751,3.377,3.3782,3.3791,3.381,3.3823,3.3828,3.384,3.3859,3.3872,3.3892,3.3908,3.394,3.3948,3.3966,3.3964,3.3983,3.3967,3.3966,3.3964,3.3962,3.3964,3.3986,3.3986,3.3986,3.3987,0,3.3772,3.3776,3.3794,3.3814,3.3829,3.3844,3.3859,3.3869,3.3876,3.3891,3.3912,3.3924,3.3949,3.3969,3.3987,3.3995,3.3992,3.3992,3.3997,3.3996,3.3993,3.3994,3.394,3.399,3.399,3.399,3.399,3.3989,3.3799,3.3815,3.3831,3.3851,3.3864,3.3878,3.3894,3.3903,3.392,3.3942,3.3944,3.3966,3.3981,3.4006,3.4015,3.4032,3.4026,3.4033,3.4035,3.4036,3.4038,3.3992,3.4036,3.4035,3.4035,3.4035,3.4035,0,3.3837,3.3848,3.3867,3.3889,3.3905,3.3903,3.392,3.3933,3.3953,3.3968,3.3984,3.4008,3.4028,3.4038,3.4058,3.4069,3.4069,3.4074,3.4073,3.4075,3.4042,3.4035,3.4075,3.4075,3.4075,3.4075,3.4075,3.4075,3.3859,3.3886,3.3891,3.3924,3.3935,3.3958,3.3967,3.3981,3.3992,3.402,3.4036,3.4044,3.4057,3.4077,3.4095,3.4097,3.4104,3.411,3.4112,3.4081,3.4077,3.4073,3.4067,3.4112,3.4112,3.4143,3.4143,3.4143]}]]